KLM121 LOWI-LGAV

Flight info

Callsign KLM121
Flight time N/A
Altitude 39000
Route RTT DCT INSEL DCT VEKEN DCT SABAD DCT SIRMI DCT NERRA DCT PETAK DCT PINDO UL607 XORKI
Aircraft B738/M-SDE2E3FGHIRWXY/LB1

Departure

Time 2026-05-06 05:21
Airport Innsbruck Airport (LOWI)

Arrival

Time N/A
Airport Athens Eleftherios Venizelos International Airport (LGAV)
Time Latitude Longitude Altitude Speed Heading
2026-05-06 04:39 47.25838 11.35176 1894 ft 0 kts 171°
2026-05-06 05:13 47.25841 11.35175 1903 ft 3 kts 171°
2026-05-06 05:13 47.25867 11.35165 1889 ft 4 kts 149°
2026-05-06 05:13 47.25884 11.35140 1889 ft 4 kts 107°
2026-05-06 05:14 47.25887 11.35122 1896 ft 0 kts 81°
2026-05-06 05:17 47.25888 11.35139 1889 ft 5 kts 81°
2026-05-06 05:17 47.25898 11.35229 1897 ft 11 kts 82°
2026-05-06 05:18 47.25953 11.35283 1903 ft 11 kts 351°
2026-05-06 05:18 47.26028 11.35266 1898 ft 11 kts 351°
2026-05-06 05:18 47.26102 11.35266 1898 ft 11 kts 31°
2026-05-06 05:18 47.26125 11.35370 1897 ft 12 kts 81°
2026-05-06 05:19 47.26139 11.35503 1892 ft 14 kts 81°
2026-05-06 05:19 47.26115 11.35617 1900 ft 11 kts 119°
2026-05-06 05:19 47.26125 11.35721 1892 ft 9 kts 37°
2026-05-06 05:19 47.26158 11.35677 1903 ft 7 kts 269°
2026-05-06 05:20 47.26156 11.35659 1903 ft 0 kts 261°
2026-05-06 05:20 47.26141 11.35517 1894 ft 50 kts 261°
2026-05-06 05:20 47.26043 11.34603 1903 ft 128 kts 261°
2026-05-06 05:21 47.25872 11.32982 2011 ft 183 kts 262°
2026-05-06 05:21 47.25718 11.31101 3015 ft 183 kts 263°
2026-05-06 05:21 47.25587 11.29233 4007 ft 184 kts 266°
2026-05-06 05:21 47.25599 11.28006 4655 ft 178 kts 278°
2026-05-06 05:22 47.25836 11.26271 5714 ft 172 kts 281°
2026-05-06 05:22 47.26197 11.24451 6139 ft 202 kts 287°
2026-05-06 05:22 47.26694 11.22405 6582 ft 218 kts 289°
2026-05-06 05:22 47.27248 11.20329 7297 ft 216 kts 290°
2026-05-06 05:23 47.27841 11.18311 8086 ft 213 kts 291°
2026-05-06 05:23 47.28406 11.16289 8773 ft 214 kts 289°
2026-05-06 05:23 47.29609 11.11981 9698 ft 247 kts 290°
2026-05-06 05:24 47.30277 11.09653 10565 ft 243 kts 290°
2026-05-06 05:24 47.30822 11.07327 11447 ft 238 kts 279°
2026-05-06 05:24 47.31133 11.04915 12033 ft 240 kts 278°
2026-05-06 05:24 47.31453 11.02492 12350 ft 242 kts 278°
2026-05-06 05:25 47.31783 11.00055 12320 ft 242 kts 278°
2026-05-06 05:25 47.32081 10.97624 12337 ft 240 kts 270°
2026-05-06 05:25 47.31675 10.95346 12347 ft 230 kts 230°
2026-05-06 05:25 47.30375 10.94085 12338 ft 228 kts 191°
2026-05-06 05:26 47.28816 10.94429 12351 ft 238 kts 152°
2026-05-06 05:26 47.27682 10.96252 12353 ft 253 kts 115°
2026-05-06 05:26 47.27514 10.98836 12346 ft 261 kts 76°
2026-05-06 05:26 47.28251 11.01318 12411 ft 275 kts 65°
2026-05-06 05:27 47.29120 11.03982 12631 ft 302 kts 66°
2026-05-06 05:27 47.29989 11.06934 12820 ft 327 kts 75°
2026-05-06 05:27 47.30111 11.10341 13004 ft 345 kts 105°
2026-05-06 05:27 47.29235 11.13718 13195 ft 364 kts 118°
2026-05-06 05:28 47.28121 11.17198 13441 ft 384 kts 117°
2026-05-06 05:28 47.27003 11.20827 13969 ft 392 kts 117°
2026-05-06 05:28 47.25919 11.24534 14593 ft 397 kts 113°
2026-05-06 05:28 47.25421 11.28523 15181 ft 409 kts 92°
2026-05-06 05:29 47.25748 11.32718 15848 ft 415 kts 82°
2026-05-06 05:29 47.26258 11.36925 16453 ft 420 kts 82°
2026-05-06 05:29 47.26754 11.41197 17023 ft 426 kts 83°
2026-05-06 05:29 47.27290 11.45520 17604 ft 432 kts 77°
2026-05-06 05:30 47.28309 11.49714 18182 ft 438 kts 68°
2026-05-06 05:30 47.29532 11.53855 18706 ft 443 kts 68°
2026-05-06 05:30 47.30785 11.58030 19195 ft 448 kts 68°
2026-05-06 05:30 47.32029 11.62274 19631 ft 455 kts 69°
2026-05-06 05:31 47.33263 11.66606 20064 ft 460 kts 69°
2026-05-06 05:31 47.34485 11.70984 20510 ft 464 kts 70°
2026-05-06 05:31 47.35708 11.75404 20966 ft 468 kts 70°
2026-05-06 05:31 47.36941 11.79869 21415 ft 472 kts 70°
2026-05-06 05:32 47.38307 11.84307 21764 ft 480 kts 62°
2026-05-06 05:32 47.39823 11.88698 22258 ft 479 kts 74°
2026-05-06 05:32 47.40370 11.93498 22674 ft 473 kts 96°
2026-05-06 05:32 47.39763 11.98184 23147 ft 461 kts 117°
2026-05-06 05:33 47.38282 12.02298 23633 ft 451 kts 131°
2026-05-06 05:33 47.36315 12.05843 24081 ft 444 kts 139°
2026-05-06 05:33 47.34242 12.09235 24522 ft 445 kts 139°
2026-05-06 05:33 47.32166 12.12642 24855 ft 449 kts 139°
2026-05-06 05:34 47.30082 12.16098 25180 ft 452 kts 138°
2026-05-06 05:34 47.27998 12.19590 25546 ft 454 kts 138°
2026-05-06 05:34 47.25918 12.23100 25903 ft 455 kts 138°
2026-05-06 05:34 47.23857 12.26584 26198 ft 459 kts 138°
2026-05-06 05:35 47.21754 12.30136 26551 ft 461 kts 138°
2026-05-06 05:35 47.19663 12.33719 26808 ft 463 kts 137°
2026-05-06 05:35 47.17545 12.37289 26845 ft 464 kts 139°
2026-05-06 05:35 47.15402 12.40840 27219 ft 464 kts 139°
2026-05-06 05:36 47.13258 12.44402 27434 ft 467 kts 138°
2026-05-06 05:36 47.11102 12.47994 27637 ft 470 kts 138°
2026-05-06 05:36 47.08944 12.51597 28021 ft 468 kts 138°
2026-05-06 05:36 47.06798 12.55181 28409 ft 468 kts 138°
2026-05-06 05:37 47.04645 12.58769 28734 ft 469 kts 138°
2026-05-06 05:37 47.02486 12.62361 29153 ft 468 kts 138°
2026-05-06 05:37 47.00340 12.65929 29615 ft 467 kts 138°
2026-05-06 05:37 46.98189 12.69501 30016 ft 467 kts 138°
2026-05-06 05:38 46.96036 12.73067 30377 ft 466 kts 138°
2026-05-06 05:38 46.93891 12.76615 30760 ft 465 kts 139°
2026-05-06 05:38 46.91740 12.80167 31066 ft 467 kts 138°
2026-05-06 05:38 46.89576 12.83735 31347 ft 469 kts 138°
2026-05-06 05:39 46.87413 12.87298 31688 ft 468 kts 139°
2026-05-06 05:39 46.85252 12.90855 32036 ft 467 kts 139°
2026-05-06 05:39 46.83087 12.94413 32262 ft 469 kts 139°
2026-05-06 05:39 46.80920 12.97967 32568 ft 469 kts 139°
2026-05-06 05:40 46.78759 13.01512 32983 ft 467 kts 139°
2026-05-06 05:40 46.76632 13.04997 33353 ft 466 kts 139°
2026-05-06 05:40 46.74470 13.08530 33660 ft 467 kts 139°
2026-05-06 05:40 46.72307 13.12059 33927 ft 467 kts 139°
2026-05-06 05:41 46.70142 13.15590 34202 ft 467 kts 139°
2026-05-06 05:41 46.67980 13.19112 34482 ft 467 kts 139°
2026-05-06 05:41 46.65817 13.22632 34794 ft 465 kts 139°
2026-05-06 05:41 46.63657 13.26141 35075 ft 465 kts 139°
2026-05-06 05:42 46.61500 13.29641 35349 ft 465 kts 139°
2026-05-06 05:42 46.59340 13.33142 35573 ft 465 kts 139°
2026-05-06 05:42 46.57173 13.36646 35785 ft 466 kts 139°
2026-05-06 05:42 46.54959 13.40058 36124 ft 461 kts 141°
2026-05-06 05:43 46.52679 13.43306 36386 ft 460 kts 143°
2026-05-06 05:43 46.50342 13.46522 36404 ft 465 kts 143°
2026-05-06 05:43 46.47983 13.49730 36690 ft 464 kts 143°
2026-05-06 05:43 46.45632 13.52933 37032 ft 463 kts 143°
2026-05-06 05:44 46.43288 13.56140 37174 ft 465 kts 143°
2026-05-06 05:44 46.40931 13.59377 37325 ft 466 kts 143°
2026-05-06 05:44 46.38584 13.62611 37562 ft 466 kts 142°
2026-05-06 05:44 46.36244 13.65841 37908 ft 463 kts 142°
2026-05-06 05:45 46.33909 13.69062 38046 ft 466 kts 142°
2026-05-06 05:45 46.31554 13.72304 38161 ft 468 kts 142°
2026-05-06 05:45 46.29189 13.75558 38279 ft 470 kts 142°
2026-05-06 05:45 46.26815 13.78822 38442 ft 471 kts 142°
2026-05-06 05:46 46.24445 13.82076 38613 ft 470 kts 142°
2026-05-06 05:46 46.22078 13.85321 38818 ft 469 kts 141°
2026-05-06 05:46 46.19711 13.88563 38936 ft 469 kts 141°
2026-05-06 05:46 46.17335 13.91810 38947 ft 471 kts 141°
2026-05-06 05:47 46.12602 13.98268 38954 ft 470 kts 141°
2026-05-06 05:47 46.07828 14.04768 38908 ft 467 kts 140°
2026-05-06 05:48 46.03144 14.11128 38949 ft 465 kts 141°
2026-05-06 05:48 45.98434 14.17506 38958 ft 465 kts 141°
2026-05-06 05:49 45.93714 14.23880 38967 ft 466 kts 141°
2026-05-06 05:49 45.88982 14.30257 38962 ft 468 kts 141°
2026-05-06 05:50 45.84222 14.36655 38955 ft 470 kts 141°
2026-05-06 05:50 45.79444 14.43064 38967 ft 471 kts 141°
2026-05-06 05:51 45.74645 14.49485 38960 ft 472 kts 141°
2026-05-06 05:51 45.69866 14.55863 38973 ft 472 kts 141°
2026-05-06 05:52 45.65055 14.62268 38940 ft 472 kts 141°
2026-05-06 05:52 45.60307 14.68579 38955 ft 460 kts 140°
2026-05-06 05:53 45.55647 14.74754 38961 ft 456 kts 140°
2026-05-06 05:53 45.50996 14.80901 38973 ft 456 kts 140°
2026-05-06 05:54 45.46332 14.87027 38967 ft 455 kts 142°
2026-05-06 05:54 45.41434 14.92695 38959 ft 453 kts 145°
2026-05-06 05:55 45.36451 14.98174 38967 ft 452 kts 146°
2026-05-06 05:55 45.31483 15.03654 38957 ft 452 kts 145°
2026-05-06 05:56 45.26533 15.09155 38965 ft 452 kts 145°
2026-05-06 05:56 45.21593 15.14655 38967 ft 451 kts 145°
2026-05-06 05:57 45.16649 15.20149 38968 ft 451 kts 145°
2026-05-06 05:57 45.11709 15.25626 38966 ft 451 kts 147°
2026-05-06 05:58 45.06774 15.31085 38967 ft 450 kts 147°
2026-05-06 05:58 45.01838 15.36530 38964 ft 450 kts 147°
2026-05-06 05:59 44.96909 15.41957 38969 ft 449 kts 147°
2026-05-06 05:59 44.92017 15.47330 38967 ft 448 kts 146°
2026-05-06 06:00 44.87100 15.52718 38974 ft 447 kts 147°
2026-05-06 06:00 44.82186 15.58092 38983 ft 447 kts 147°
2026-05-06 06:01 44.77271 15.63455 38974 ft 447 kts 147°
2026-05-06 06:01 44.72354 15.68808 38978 ft 447 kts 147°
2026-05-06 06:02 44.67439 15.74147 38987 ft 446 kts 147°
2026-05-06 06:02 44.62520 15.79479 38989 ft 447 kts 147°
2026-05-06 06:03 44.57585 15.84815 38994 ft 448 kts 147°
2026-05-06 06:03 44.52636 15.90156 38994 ft 450 kts 147°
2026-05-06 06:04 44.47667 15.95506 38990 ft 451 kts 147°
2026-05-06 06:04 44.42724 16.00817 38988 ft 451 kts 147°
2026-05-06 06:05 44.37737 16.06165 38996 ft 451 kts 147°
2026-05-06 06:05 44.32743 16.11507 38998 ft 453 kts 147°
2026-05-06 06:06 44.27737 16.16851 39006 ft 454 kts 147°
2026-05-06 06:06 44.22719 16.22197 38982 ft 454 kts 147°
2026-05-06 06:07 44.17689 16.27545 39012 ft 455 kts 148°
2026-05-06 06:07 44.12632 16.32869 39009 ft 456 kts 148°
2026-05-06 06:08 44.07513 16.38079 39016 ft 456 kts 149°
2026-05-06 06:08 44.02390 16.43254 39024 ft 455 kts 149°
2026-05-06 06:09 43.97268 16.48436 39021 ft 456 kts 149°
2026-05-06 06:09 43.93001 16.52755 39032 ft 457 kts 149°
2026-05-06 06:10 43.87858 16.57954 39040 ft 458 kts 149°
2026-05-06 06:10 43.82704 16.63153 39040 ft 458 kts 149°
2026-05-06 06:11 43.77540 16.68352 39040 ft 459 kts 149°
2026-05-06 06:11 43.72366 16.73547 39032 ft 460 kts 149°
2026-05-06 06:12 43.67181 16.78743 39046 ft 461 kts 149°
2026-05-06 06:12 43.61969 16.83954 39047 ft 463 kts 149°
2026-05-06 06:13 43.56772 16.89140 39044 ft 465 kts 149°
2026-05-06 06:13 43.51522 16.94367 39041 ft 466 kts 149°
2026-05-06 06:14 43.46261 16.99593 39044 ft 466 kts 149°
2026-05-06 06:14 43.40993 17.04815 39046 ft 466 kts 149°
2026-05-06 06:15 43.35720 17.10030 39048 ft 467 kts 148°
2026-05-06 06:15 43.30440 17.15241 39035 ft 467 kts 148°
2026-05-06 06:16 43.25167 17.20435 39048 ft 466 kts 148°
2026-05-06 06:16 43.19893 17.25617 39051 ft 466 kts 148°
2026-05-06 06:17 43.14613 17.30793 39056 ft 467 kts 148°
2026-05-06 06:17 43.09315 17.35976 39059 ft 468 kts 149°
2026-05-06 06:18 43.04014 17.41152 39034 ft 469 kts 148°
2026-05-06 06:18 42.98700 17.46330 39053 ft 469 kts 148°
2026-05-06 06:19 42.93380 17.51503 39053 ft 469 kts 148°
2026-05-06 06:19 42.88428 17.57337 39042 ft 476 kts 134°
2026-05-06 06:20 42.84172 17.64268 39044 ft 477 kts 133°
2026-05-06 06:20 42.79959 17.71199 39051 ft 477 kts 133°
2026-05-06 06:21 42.75686 17.78120 39051 ft 477 kts 133°
2026-05-06 06:21 42.71384 17.85013 39060 ft 477 kts 133°
2026-05-06 06:22 42.67077 17.91884 39068 ft 477 kts 133°
2026-05-06 06:22 42.62769 17.98743 39072 ft 477 kts 133°
2026-05-06 06:23 42.58450 18.05606 39065 ft 478 kts 133°
2026-05-06 06:23 42.54131 18.12453 39075 ft 478 kts 133°
2026-05-06 06:24 42.49807 18.19293 39076 ft 478 kts 133°
2026-05-06 06:24 42.45468 18.26142 39077 ft 478 kts 133°
2026-05-06 06:25 42.41160 18.32926 39077 ft 478 kts 133°
2026-05-06 06:26 42.34617 18.43197 39090 ft 478 kts 133°
2026-05-06 06:26 42.30269 18.50005 39085 ft 478 kts 133°
2026-05-06 06:27 42.25914 18.56806 39098 ft 478 kts 133°
2026-05-06 06:27 42.21584 18.63554 39101 ft 479 kts 133°
2026-05-06 06:28 42.17210 18.70355 39087 ft 479 kts 133°
2026-05-06 06:28 42.12841 18.77132 39091 ft 479 kts 133°
2026-05-06 06:29 42.08464 18.83907 39086 ft 479 kts 133°
2026-05-06 06:29 42.04083 18.90672 39083 ft 480 kts 133°
2026-05-06 06:30 41.99694 18.97433 39091 ft 480 kts 133°
2026-05-06 06:30 41.95301 19.04186 39096 ft 480 kts 133°
2026-05-06 06:31 41.90899 19.10937 39096 ft 480 kts 133°
2026-05-06 06:31 41.86518 19.17642 39095 ft 480 kts 133°
2026-05-06 06:32 41.82109 19.24376 39096 ft 480 kts 133°
2026-05-06 06:32 41.77691 19.31103 39086 ft 480 kts 134°
2026-05-06 06:33 41.73007 19.37457 39097 ft 479 kts 138°
2026-05-06 06:33 41.68194 19.43619 39098 ft 479 kts 139°
2026-05-06 06:34 41.63378 19.49791 39105 ft 479 kts 138°
2026-05-06 06:34 41.58579 19.55987 39099 ft 480 kts 137°
2026-05-06 06:35 41.53789 19.62184 39103 ft 480 kts 137°
2026-05-06 06:35 41.48994 19.68378 39097 ft 480 kts 138°
2026-05-06 06:36 41.44197 19.74558 39106 ft 479 kts 138°
2026-05-06 06:36 41.39395 19.80729 39106 ft 480 kts 138°
2026-05-06 06:37 41.34584 19.86898 39104 ft 480 kts 138°
2026-05-06 06:37 41.29769 19.93059 39105 ft 480 kts 138°
2026-05-06 06:38 41.24948 19.99216 39093 ft 481 kts 138°
2026-05-06 06:38 41.20121 20.05366 39095 ft 480 kts 138°
2026-05-06 06:39 41.15292 20.11504 39111 ft 480 kts 138°
2026-05-06 06:39 41.10498 20.17587 39111 ft 480 kts 138°
2026-05-06 06:40 41.05661 20.23709 39107 ft 481 kts 138°
2026-05-06 06:40 41.00822 20.29822 39108 ft 481 kts 138°
2026-05-06 06:41 40.95979 20.35927 39102 ft 481 kts 138°
2026-05-06 06:41 40.91128 20.42029 39105 ft 481 kts 138°
2026-05-06 06:42 40.86273 20.48123 39117 ft 482 kts 138°
2026-05-06 06:42 40.81410 20.54214 39111 ft 482 kts 138°